Weather Roundup
Issued by NWS Springfield, MO

Home | Current Version | Previous Version | Text Only | Print | Product List | Glossary On
Versions: 1 2 3 4 5 6 7 8 9 10 11 12 13 14 15 16 17 18 19 20 21 22 23 24 25 26 27 28 29 30 31 32 33 34 35 36 37 38 39 40 41 42 43 44 45 46 47 48 49 50
000
NZUS99 KSGF 281407
HRRSGF

HOURLY WEATHER
NATIONAL WEATHER SERVICE SPRINGFIELD MO
900 AM CDT THU APR 28 2016

......SGF CWA......

CITY           SKY/WX    TMP DP  RH WIND       PRES   REMARKS
SPRINGFIELD    FAIR      56  41  57 W10       29.92R
JOPLIN         FAIR      53  42  66 W12       29.95R
WEST PLAINS    FAIR      59  45  59 W9        29.91R
ROLLA          FAIR      55  46  71 W18       29.86R
OSAGE BEACH    FAIR      55  39  54 SW13      29.89R
BRANSON        SUNNY     57  43  58 W12       29.94R

......SURROUNDING SGF CWA......

CITY           SKY/WX    TMP DP  RH WIND       PRES   REMARKS
CHANUTE        FAIR      52  40  63 NW12      29.96R
PARSONS        FAIR      53  42  66 NW12      29.96R
COFFEYVILLE    FAIR      54  39  57 NW14      29.95R
EMPORIA        FAIR      46  37  71 NW15G22   29.95R
GROVE OK       FAIR      59  45  58 NW7       29.96R
ROGERS AR      FAIR      55  42  61 NW8       29.96R
SILOAM SPRINGS FAIR      55  39  54 N10       29.97R
HARRISON AR    FAIR      59  41  51 NW10      29.94R
NEAR YELLVILLE FAIR     N/A N/A N/A NW7       29.90R

......KANSAS AND MISSOURI......

CITY           SKY/WX    TMP DP  RH WIND       PRES   REMARKS
KANSAS CTY INT CLOUDY    48  43  82 W12       29.88R
DOWNTOWN KC    CLOUDY    50  43  77 W9        29.89R
COLUMBIA       FAIR      54  44  69 W17       29.86R
SEDALIA        FAIR      51  42  71 W13G18    29.90R
ST JOSEPH      CLOUDY    49  46  90 SW13      29.87R
ST LOUIS       FAIR      63  50  62 W16       29.83R
SPIRIT OF STL  FAIR      60  50  69 W10       29.83R
KIRKSVILLE     CLOUDY    50  43  77 SW9G17    29.83R
WICHITA        FAIR      51  35  54 N14       29.97R
TOPEKA         CLOUDY    48  40  73 W14G21    29.91S
OLATHE         CLOUDY    46  40  79 W9        29.90R

......TENNESSEE......

CITY           SKY/WX    TMP DP  RH WIND       PRES   REMARKS
MEMPHIS        FAIR      74  55  51 NW7       29.90R
NASHVILLE      CLOUDY    70  63  78 SW5       29.89R

......ARKANSAS.......

CITY           SKY/WX    TMP DP  RH WIND       PRES   REMARKS
FAYETTEVILLE   FAIR      56  47  71 VRB3      29.96R
FT SMITH       FAIR      63  43  48 CALM      29.96R
LITTLE ROCK    FAIR      71  56  58 VRB3      29.93R

......OKLAHOMA.......

CITY           SKY/WX    TMP DP  RH WIND       PRES   REMARKS
TULSA          FAIR      59  44  57 N9        29.93R
PONCA CITY     FAIR      53  41  63 N18       29.95R
MCALESTER      FAIR      62  46  55 NE8       29.95R
OKLAHOMA CITY  FAIR      58  44  60 NE14      29.95R

......IOWA............

CITY           SKY/WX    TMP DP  RH WIND       PRES   REMARKS
DES MOINES     CLOUDY    50  44  80 CALM      29.79R
QUAD CITIES    CLOUDY    50  47  89 E13       29.80S FOG

......ILLINOIS........

CITY           SKY/WX    TMP DP  RH WIND       PRES   REMARKS
QUINCY         PTSUNNY   54  49  83 W12       29.81R
CHICAGO        CLOUDY    44  40  85 NE12      29.86R




USA.gov is the U.S. government's official web portal to all federal, state and local government web resources and services.